Fairfield, PA

5:10 PM EST on February 24, 2017 (GMT -0500)
Fountain Dale

Weather History for KRYT - July, 2013

Change the Weather History Date:

Friday, July 19, 2013

  Actual Average (KHGR) Record (KHGR)
Temperature  
Mean Temperature 82 °F -  
Max Temperature 93 °F 82 °F 96 °F (2013)
Min Temperature 71 °F 63 °F 33 °F (1996)
Cooling Degree Days 17    
Growing Degree Days 32 (Base 50)    
Moisture  
Dew Point 71 °F    
Average Humidity 73    
Maximum Humidity 88    
Minimum Humidity 48    
Precipitation  
Precipitation 1.10 in - - ()
Sea Level Pressure  
Sea Level Pressure 29.94 in    
Wind  
Wind Speed 2 mph (West)    
Max Wind Speed 15 mph    
Max Gust Speed 31 mph    
Visibility 6 miles    
Events Rain , Thunderstorm    
Averages and records for this station are not official NWS values.
T = Trace of Precipitation, MM = Missing Value Source: NWS Daily Summary

Daily Weather History Graph

Daily Weather History Graph

Search for Another Location

Airport or City:

Trip Planner

Search our weather history database for the weather conditions in past years. The results will help you decide how hot, cold, wet, or windy it might be!

Date:

Astronomy

Jul. 19, 2013 Rise Set
Actual Time 5:57 AM EDT 8:34 PM EDT
Civil Twilight 5:26 AM EDT 9:05 PM EDT
Nautical Twilight 4:47 AM EDT 9:44 PM EDT
Astronomical Twilight 4:03 AM EDT 10:27 PM EDT
Moon 5:34 PM EDT (7/19) 2:36 AM EDT (7/19)
Length of Visible Light 15h 38m
Length of Day
14h 36m
Waxing Gibbous, 86% of the Moon is Illuminated
Jul 19
Waxing Gibbous
Jul 22
Full
Jul 29
Last Quarter
Aug 6
New
Aug 14
First Quarter

Hourly Weather History & Observations

Time (EDT) Temp. Heat Index Dew Point Humidity Pressure Visibility Wind Dir Wind Speed Gust Speed Precip Events Conditions
12:53 AM 78.1 °F - 73.0 °F 84% 29.99 in 5.0 mi Calm Calm - N/A   Haze
1:53 AM 79.0 °F - 73.0 °F 82% 29.98 in 6.0 mi Calm Calm - N/A   Haze
2:53 AM 80.1 °F 83.8 °F 72.0 °F 76% 29.97 in 8.0 mi Calm Calm - N/A   Clear
3:53 AM 79.0 °F - 72.0 °F 79% 29.97 in 8.0 mi Calm Calm - N/A   Clear
4:53 AM 79.0 °F - 72.0 °F 79% 29.97 in 8.0 mi Calm Calm - N/A   Clear
5:53 AM 79.0 °F - 71.1 °F 77% 29.97 in 8.0 mi Calm Calm - N/A   Clear
6:53 AM 79.0 °F - 71.1 °F 77% 29.97 in 7.0 mi Calm Calm - N/A   Clear
7:53 AM 80.1 °F 84.2 °F 73.0 °F 79% 29.97 in 7.0 mi Calm Calm - N/A   Clear
8:53 AM 84.0 °F 90.2 °F 73.0 °F 69% 29.98 in 7.0 mi WSW 4.6 mph - N/A   Clear
9:53 AM 86.0 °F 93.0 °F 73.0 °F 65% 29.97 in 8.0 mi Variable 3.5 mph - N/A   Clear
10:53 AM 87.1 °F 95.4 °F 73.9 °F 65% 29.97 in 7.0 mi Variable 5.8 mph - N/A   Clear
11:53 AM 89.1 °F 98.0 °F 73.9 °F 61% 29.96 in 7.0 mi SSW 6.9 mph - N/A   Partly Cloudy
12:53 PM 90.0 °F 96.9 °F 72.0 °F 55% 29.94 in 8.0 mi Variable 4.6 mph - N/A   Scattered Clouds
1:53 PM 91.0 °F 99.3 °F 73.0 °F 55% 29.92 in 7.0 mi West 3.5 mph - N/A   Partly Cloudy
2:53 PM 93.0 °F 100.7 °F 72.0 °F 50% 29.88 in 7.0 mi Variable 4.6 mph - N/A   Partly Cloudy
3:53 PM 91.9 °F 98.4 °F 71.1 °F 50% 29.87 in 8.0 mi Variable 4.6 mph - N/A   Partly Cloudy
4:53 PM 91.9 °F 97.4 °F 70.0 °F 48% 29.84 in 10.0 mi SW 5.8 mph - N/A   Clear
5:53 PM 89.1 °F 97.0 °F 73.0 °F 59% 29.84 in 9.0 mi Calm Calm - N/A   Partly Cloudy
6:02 PM 89.6 °F 98.2 °F 73.4 °F 59% 29.89 in 8.0 mi Variable 5.8 mph - N/A Thunderstorm Thunderstorm
6:53 PM 80.1 °F 81.7 °F 64.0 °F 58% 29.91 in 10.0 mi North 15.0 mph 24.2 mph N/A Thunderstorm Thunderstorm
7:06 PM 75.2 °F - 66.2 °F 73% 30.05 in 1.8 mi WNW 11.5 mph 31.1 mph 0.18 in Rain , Thunderstorm Heavy Thunderstorms and Rain
7:12 PM 71.6 °F - 66.2 °F 83% 30.04 in 0.5 mi North 9.2 mph 31.1 mph 0.67 in Rain , Thunderstorm Heavy Thunderstorms and Rain
7:22 PM 73.4 °F - 68.0 °F 83% 30.02 in 1.0 mi Variable 5.8 mph - 0.89 in Rain , Thunderstorm Heavy Thunderstorms and Rain
7:34 PM 73.4 °F - 69.8 °F 88% 29.96 in 1.2 mi Variable 3.5 mph - 1.06 in Rain , Thunderstorm Heavy Thunderstorms and Rain
7:42 PM 73.4 °F - 69.8 °F 88% 29.95 in 3.0 mi Calm Calm - 1.09 in Rain , Thunderstorm Light Thunderstorms and Rain
7:53 PM 73.9 °F - 70.0 °F 87% 29.91 in 7.0 mi Calm Calm - 1.09 in Rain , Thunderstorm Light Thunderstorms and Rain
8:43 PM 73.4 °F - 69.8 °F 88% 29.93 in 6.0 mi Calm Calm - 0.00 in Rain Light Rain
8:53 PM 73.9 °F - 69.1 °F 85% 29.87 in 6.0 mi Calm Calm - 0.01 in Rain , Thunderstorm Light Thunderstorms and Rain
9:11 PM 73.4 °F - 69.8 °F 88% 29.91 in 6.0 mi Calm Calm - 0.00 in   Haze
10:53 PM 75.0 °F - 69.1 °F 82% 29.87 in 6.0 mi Calm Calm - N/A   Haze
11:53 PM 75.9 °F - 68.0 °F 76% 29.86 in 10.0 mi Calm Calm - N/A   Clear